KIRKWALL_AIRPORT current weather conditions

sailwx.info

Wind from 350 at 15 knots

Air temperature 4.0° C
Visibility: greater than 5.4 NM
Dewpoint -1.0° C

Last reported at 2017-Apr-24 19:50 UTC.
Time now 2017-Apr-24 21:01 UTC

Location: N 58°57' W 002°54'.
View on Google Maps.

See reports from other nearby stations

  
Tides and Currents Weather Stations Pressure Air Temp Water Temp Dewpoint Dewpoint Depression Visibility Wind Speed Wind Dir Waves Ship Positions
date/time (UTC)wind fromknots sea level pressurealtimeterstation pressurevisibilityair tempwater tempwave heightnotes
2017-Apr-24 19:50 350 15 5.4 4.0
2017-Apr-24 19:20 340 17 5.4 4.0
2017-Apr-24 18:50 340 19 gusting 28 5.4 4.0
2017-Apr-24 18:20 330 13 5.4 4.0 Showers in the vicinity.
2017-Apr-24 17:50 360 12 5.4 4.0
2017-Apr-24 17:20 360 12 5.4 5.0
2017-Apr-24 16:50 350 8 5.4 5.0
2017-Apr-24 16:20 350 7 5.4 5.0
2017-Apr-24 15:50 340 6 5.4 5.0
2017-Apr-24 15:20 330 7 5.4 5.0
2017-Apr-24 14:50 320 9 5.4 5.0
2017-Apr-24 14:20 310 9 5.4 5.0
2017-Apr-24 13:50 320 13 5.4 5.0
2017-Apr-24 13:20 320 14 5.4 5.0
2017-Apr-24 12:50 330 13 5.4 4.0
2017-Apr-24 12:20 350 11 5.4 3.0 Showers in the vicinity.
2017-Apr-24 11:50 350 19 5.4 2.0 Showers in the vicinity.
2017-Apr-24 11:20 010 15 5.4 2.0 Showers in the vicinity.
2017-Apr-24 10:50 010 14 0.5 1.0 Snow.
2017-Apr-24 10:20 010 13 1.0 1.0 Snow.
2017-Apr-24 09:50 030 11 1.0 1.0 Snow.
2017-Apr-24 09:20 020 12 1.0 1.0 Snow.
2017-Apr-24 08:20 060 2 1.0 1.0 Snow.
2017-Apr-24 07:50 3.8 2.0 Light snow.
2017-Apr-24 07:20 3.8 2.0 Light snow showers.
2017-Apr-24 06:50 130 6 4.9 2.0 Light snow showers.
2017-Apr-24 06:20 100 6 5.4 3.0 Light rain showers.
2017-Apr-24 05:50 080 4 5.4 3.0 Showers in the vicinity.
2017-Apr-24 05:20 5.4 3.0 Showers in the vicinity.
2017-Apr-24 04:50 260 1 5.4 1.0
2017-Apr-24 04:20 5.4 1.0
2017-Apr-24 03:50 140 1 5.4 2.0
2017-Apr-24 03:20 060 8 5.4 2.0
2017-Apr-24 02:50 050 5 5.4 3.0
2017-Apr-24 02:20 030 6 5.4 3.0
2017-Apr-24 01:50 010 12 5.4 4.0
2017-Apr-24 01:20 360 12 5.4 4.0 Drizzle.
2017-Apr-24 00:50 360 12 5.4 5.0
2017-Apr-24 00:20 010 13 5.4 4.0
2017-Apr-23 23:50 360 15 5.4 5.0
2017-Apr-23 23:20 360 20 5.4 5.0 Light rain.
2017-Apr-23 22:50 360 19 5.4 5.0
2017-Apr-23 22:20 360 24 gusting 34 5.4 5.0
2017-Apr-23 21:50 360 25 gusting 34 5.4 6.0
2017-Apr-23 21:20 330 21 8.0
2017-Apr-23 20:50 280 21 5.4 7.0
2017-Apr-23 20:20 280 27 gusting 39 5.4 7.0 Showers in the vicinity.
2017-Apr-23 19:50 270 26 gusting 36 5.4 8.0 Showers in the vicinity.
2017-Apr-23 19:20 260 28 gusting 39 5.4 8.0 Showers in the vicinity.
2017-Apr-23 18:50 250 26 4.9 9.0 Rain.
2017-Apr-23 18:20 250 25 gusting 38 5.4 9.0 Light rain.
2017-Apr-23 17:50 250 22 5.4 9.0
2017-Apr-23 17:20 250 22 gusting 35 5.4 9.0 Light rain.
2017-Apr-23 16:50 240 24 4.3 8.0 Rain.
2017-Apr-23 16:20 240 24 5.4 9.0 Rain.
2017-Apr-23 15:50 240 22 gusting 34 5.4 8.0 Rain.
2017-Apr-23 15:20 240 21 gusting 34 5.4 8.0 Light rain.
2017-Apr-23 14:50 240 22 5.4 8.0 Rain.
2017-Apr-23 14:20 240 22 5.4 8.0 Light rain.
2017-Apr-23 13:50 250 22 5.4 8.0 Light rain.
2017-Apr-23 13:20 250 22 gusting 34 5.4 8.0 Light rain.
2017-Apr-23 12:50 250 21 gusting 32 5.4 8.0 Light rain.
2017-Apr-23 12:20 250 20 4.3 8.0 Rain.
2017-Apr-23 11:50 250 15 5.4 8.0 Rain.
2017-Apr-23 11:20 250 14 5.4 8.0 Light rain.
2017-Apr-23 10:50 270 12 5.4 8.0 Light rain.
2017-Apr-23 10:20 250 11 5.4 8.0 Rain.
2017-Apr-23 09:50 270 12 5.4 8.0 Light rain.
2017-Apr-23 09:20 280 11 5.4 8.0 Light rain.
2017-Apr-23 08:50 270 11 5.4 7.0 Light rain.
2017-Apr-23 08:20 280 8 5.4 7.0 Light rain.
2017-Apr-23 07:50 270 9 5.4 7.0 Light rain.
2017-Apr-23 07:20 280 6 5.4 7.0 Light rain.
2017-Apr-23 06:50 280 6 5.4 6.0 Showers in the vicinity.
2017-Apr-23 06:20 280 7 5.4 6.0
2017-Apr-23 05:50 310 9 6.0
2017-Apr-23 05:20 270 6 5.4 5.0
2017-Apr-23 04:50 250 5 5.4 5.0
2017-Apr-23 04:20 240 2 5.4 5.0 Light drizzle.
2017-Apr-23 03:50 240 2 5.4 4.0
2017-Apr-23 03:20 290 6 5.0
2017-Apr-23 02:50 230 4 5.4 5.0
2017-Apr-23 02:20 250 6 5.4 6.0 Light rain.
2017-Apr-23 01:50 230 6 5.4 5.0
2017-Apr-23 01:20 240 5 5.4 5.0
2017-Apr-23 00:50 250 4 5.4 4.0
2017-Apr-23 00:20 250 6 5.4 4.0
2017-Apr-22 23:50 250 6 5.4 5.0
2017-Apr-22 23:20 240 2 5.4 4.0
2017-Apr-22 22:50 240 5 5.4 4.0
2017-Apr-22 22:20 240 6 5.4 4.0
2017-Apr-22 21:50 250 4 5.4 4.0
2017-Apr-22 21:20 250 4 5.4 4.0